Regional Weather Roundup
Issued by NWS

Home | Current Version | Previous Version | Text Only | Print | Product List | Glossary Off
Versions: 1 2 3 4 5 6 7 8 9 10 11 12 13 14 15 16 17 18 19 20 21 22 23 24 25 26 27 28 29 30 31 32 33 34 35 36 37 38 39 40 41 42 43 44 45 46 47 48 49 50

896
ASUS43 KLOT 110908
RWRIL

ILLINOIS REGIONAL WEATHER ROUNDUP
NATIONAL WEATHER SERVICE CHICAGO/ROMEOVILLE IL
300 AM CST THU FEB 11 2016

NOTE: "FAIR" INDICATES FEW OR NO CLOUDS BELOW 12,000 FEET WITH NO
SIGNIFICANT WEATHER AND/OR OBSTRUCTIONS TO VISIBILITY.

* THESE STATIONS ARE NOT UNDER NWS QUALITY CONTROL. THEY ALSO MAY NOT
  REPORT WEATHER SUCH AS PRECIPITATION OR FOG.

ILZ001-002-007-009-015-016-024-111000-
NORTHWEST ILLINOIS

CITY           SKY/WX    TMP DP  RH WIND       PRES   REMARKS
MOLINE         PTCLDY    11   2  67 N5        30.25R WCI   3
STERLING*      PTCLDY    12   0  57 N6        30.21R WCI   3
SAVANNA*       CLEAR     10  -1  61 N7        30.26R WCI   0
$$

ILZ003-004-008-010-011-017-018-111000-
NORTH CENTRAL ILLINOIS

CITY           SKY/WX    TMP DP  RH WIND       PRES   REMARKS
ROCKFORD       CLEAR      8   0  69 N7        30.24R WCI  -3
FREEPORT*      CLEAR      8  -1  67 N7        30.24R WCI  -3
ROCHELLE*      CLEAR      9   2  72 NW6       30.23R WCI   0
DE KALB*       CLEAR      9   2  75 NW5       30.20R WCI   0
$$

ILZ005-006-012>014-019>023-111000-
NORTHEAST ILLINOIS

CITY           SKY/WX    TMP DP  RH WIND       PRES   REMARKS
CHICAGO-OHARE  PTCLDY    10   0  63 NW12      30.19R WCI  -5
CHICAGO-MIDWAY CLEAR     13  -1  54 NW10      30.20R WCI   0
AURORA         CLEAR      9   3  77 NW7       30.21R WCI  -2
LANSING*       CLEAR     11   1  62 NW3       30.20R
JOLIET*        PTCLDY    12   3  69 CALM      30.22R
WAUKEGAN       CLEAR      6  -2  69 NW7       30.19R WCI  -6
DUPAGE AIRPORT CLEAR      9  -2  61 NW8       30.20R WCI  -3
KANKAKEE*      MOCLDY    13   2  64 NW7       30.21R WCI   2
WHEELING       CLEAR      8  -1  66 NW7       30.21R WCI  -3
MORRIS*        MOCLDY    11   4  71 N5        30.18F WCI   3
ROMEOVILLE*    CLEAR      9   2  74 NW5       30.21R WCI   0
NORTHERLY ISL    N/A     14   1  56 NW12        N/A  WCI   1
$$

LMZ740>746-111000-
SOUTHERN LAKE MICHIGAN

STATION/POSITION SKY/WX   TEMP    WIND        PRES    VSBY  WAVE
                          AIR SEA DIR/SP/G                  HT/PER
                          (F)     (DEG/KT/KT) (MB)    (MI)  (FT/S)
HARRISON CRIB              15     320/ 16/ 17   N/A
BURNHAM HARBOR             14     300/  9/ 12   N/A
CALUMET HARBOR             13     290/  5/  9 1021.3R
BURNS HARBOR               17     320/ 13/ 18 1021.3S
MICHIGAN CITY              18     270/ 17/ 21   N/A
$$

ILZ025>027-034>036-040-047-049-050-058-095>099-111000-
WEST-CENTRAL ILLINOIS

CITY           SKY/WX    TMP DP  RH WIND       PRES   REMARKS
QUINCY         CLOUDY    19  13  77 NE13      30.20R WCI   6
GALESBURG*     PTCLDY     8   4  83 CALM      30.23R
MACOMB*        CLOUDY    15   8  73 N7        30.25R WCI   5
JACKSONVILLE*  CLOUDY    22  16  77 N6        30.21S WCI  14
PITTSFIELD*    CLOUDY    20  15  82 N6        30.22R WCI  12
$$

ILZ028>032-037-038-041>044-048-051>054-059>061-111000-
CENTRAL ILLINOIS

CITY           SKY/WX    TMP DP  RH WIND       PRES   REMARKS
PONTIAC        CLOUDY    15   6  70 N6        30.22R WCI   6
BLOOMINGTON    CLOUDY    12   6  77 NE8       30.20R WCI   0
DECATUR        CLOUDY    17   7  64 N7        30.20R WCI   8
PEORIA         CLOUDY    12   3  67 CALM      30.23R
LACON*         CLOUDY    12   4  71 N3        30.23R
LINCOLN*       CLOUDY    17   9  71 N5        30.22S WCI  10
SPRINGFIELD    CLOUDY    20   8  60 N8        30.22R WCI  10
TAYLORVILLE    CLOUDY    19  12  73 N10       30.21R WCI   8
$$

ILZ033-039-045-046-055>057-062-063-111000-
EAST-CENTRAL ILLINOIS

CITY           SKY/WX    TMP DP  RH WIND       PRES   REMARKS
CHAMPAIGN      CLOUDY    15   6  67 N5        30.19R WCI   8
RANTOUL*       CLOUDY    15   8  73 N7        30.19R WCI   6
MATTOON        CLOUDY    18   8  65 N6        30.19R WCI  10
PARIS*         CLOUDY    14   9  80 CALM      30.21R
$$

ILZ079-100>102-111000-
SOUTHWEST ILLINOIS

CITY           SKY/WX    TMP DP  RH WIND       PRES   REMARKS
ALTON          CLOUDY    21  17  86 CALM      30.19R
BELLEVILLE     CLOUDY    22  20  93 NE5       30.18R WCI  16
CAHOKIA*       CLOUDY    24  18  77 NE6       30.20R WCI  17
SPARTA*        CLOUDY    21  19  93 NE3       30.18R
$$

ILZ064>066-069>071-074>076-080>082-084>086-088>090-092>094-111000-
SOUTH-CENTRAL ILLINOIS

CITY           SKY/WX    TMP DP  RH WIND       PRES   REMARKS
CARBONDALE     CLOUDY    22  18  85 NE3       30.18R
CAIRO*         CLEAR     23  21  92 NE5       30.15R WCI  17
EFFINGHAM*     FLURRIES  21  18  86 N5        30.21S WCI  15
MARION         CLOUDY    21  19  93 CALM      30.19R
MT. VERNON     CLOUDY    21  16  79 NE6       30.18S WCI  14
CENTRALIA*     CLOUDY    22  19  91 NE3       30.18R
SALEM*         CLOUDY    22  18  85 NE3       30.18R
METROPOLIS*    CLOUDY    24  22  92 CALM      30.16S
$$

ILZ067-068-072-073-078-083-087-091-111000-
SOUTHEAST ILLINOIS

CITY           SKY/WX    TMP DP  RH WIND       PRES   REMARKS
LAWRENCEVILLE  CLOUDY    21  15  78 N7        30.20S WCI  12
FLORA*         FLURRIES  23  19  85 CALM      30.20R
FAIRFIELD*     CLOUDY    22  19  88 CALM      30.19R
HARRISBURG*    CLOUDY    23  20  89 CALM      30.19R
ROBINSON*      CLOUDY    19  14  79 N3        30.21S
CARMI*         CLOUDY    22  19  89 NE6       30.19R WCI  15
$$

ABBREVIATIONS USED IN REMARKS
   TC - TEMPERATURE IN CELSIUS
  WCI - WIND CHILL INDEX
   HX - HEAT INDEX
  VSB - VISIBILITY
$$





USA.gov is the U.S. government's official web portal to all federal, state and local government web resources and services.